Regional Weather Roundup
Issued by NWS

Home | Current Version | Previous Version | Text Only | Print | Product List | Glossary Off
Versions: 1 2 3 4 5 6 7 8 9 10 11 12 13 14 15 16 17 18 19 20 21 22 23 24 25 26 27 28 29 30 31 32 33 34 35 36 37 38 39 40 41 42 43 44 45 46 47 48 49 50

000
ASUS43 KMKX 232021
RWRWI

WISCONSIN REGIONAL WEATHER ROUNDUP
NATIONAL WEATHER SERVICE MILWAUKEE/SULLIVAN WI
300 PM CDT THU MAR 23 2017

NOTE: "FAIR" INDICATES FEW OR NO CLOUDS BELOW 12,000 FEET WITH NO
SIGNIFICANT WEATHER AND/OR OBSTRUCTIONS TO VISIBILITY.

WIZ001-002-006>008-014>016-023>028-232100-
NORTHWEST WISCONSIN

CITY           SKY/WX    TMP DP  RH WIND       PRES   REMARKS
SUPERIOR ARPT  DRIZZLE   37  27  68 S9        29.96F WCI  30
ASHLAND        NOT AVBL
HAYWARD        CLOUDY    37  21  52 S10       29.99F WCI  30
SIREN          CLOUDY    38  23  53 SE13G18   29.94F WCI  30
CUMBERLAND     CLOUDY    36  21  55 SE14      29.95F WCI  27
RICE LAKE      CLOUDY    38  23  55 SE14      29.99F WCI  30
CHETEK         CLOUDY    38  23  54 SE10G16   29.98F WCI  32
LADYSMITH      CLOUDY    37  25  60 SE9       30.04F WCI  31
EAU CLAIRE     CLOUDY    41  21  44 SE14      29.98F
MENOMONIE      CLOUDY    40  22  49 SE17G23   29.96F WCI  32
NEW RICHMOND   CLOUDY    38  23  54 SE12G20   29.95F WCI  31
OSCEOLA        CLOUDY    39  26  59 SE13G20   29.99S WCI  31
$$

WIZ003>005-009-010-017-018-232100-
NORTH CENTRAL WISCONSIN

CITY           SKY/WX    TMP DP  RH WIND       PRES   REMARKS
MANITOWISH WTR CLOUDY    35  21  57 S10G18    30.03F WCI  27
ARBOR VITAE    CLOUDY    37  22  55 S13       30.03F WCI  28
WOODRUFF       CLOUDY    37  22  55 S13       30.03F WCI  28
RHINELANDER    CLOUDY    38  20  48 S9G22     30.07F WCI  31
EAGLE RIVER    CLOUDY    36  17  46 S12G18    30.05F WCI  27
LAND O LAKES   CLOUDY    36  19  50 S8G22     30.07F WCI  29
PHILLIPS       CLOUDY    37  24  59 S13G21    30.02F WCI  28
TOMAHAWK       CLOUDY    37  22  54 S6        30.06F WCI  33
MEDFORD        CLOUDY    37  22  55 S15G22    30.05F WCI  28
MERRILL        CLOUDY    39  21  49 S6        30.09F WCI  34
$$

WIZ029-030-035-036-043>047-232100-
CENTRAL WISCONSIN

CITY           SKY/WX    TMP DP  RH WIND       PRES   REMARKS
WAUSAU         CLOUDY    41  19  41 S16       30.08F
MOSINEE        CLOUDY    39  19  45 S16       30.11F WCI  30
MARSHFIELD     CLOUDY    38  21  50 S14       30.08F WCI  30
STEVENS POINT  CLOUDY    38  19  44 S10       30.13S WCI  32
WAUPACA        CLOUDY    43  21  42 S12G18    30.15F
WAUTOMA        CLOUDY    41  23  48 S13       30.14
WISC RAPIDS    CLOUDY    40  21  46 S10       30.12F WCI  33
CAMP DOUGLAS   CLOUDY    43  23  45 SE10G18   30.09F
$$

WIZ011>013-019>022-031-037>040-048>050-232100-
NORTHEAST WISCONSIN

CITY           SKY/WX    TMP DP  RH WIND       PRES   REMARKS
ANTIGO         CLOUDY    36  23  60 S14G20    30.10F WCI  27
SHAWANO        CLOUDY    42  24  48 SE10      30.17F
OCONTO         CLOUDY    36  26  67 S10G16    30.18F WCI  28
STURGEON BAY   CLOUDY    34  26  72 S21G28    30.19F WCI  22
GREEN BAY      CLOUDY    39  27  62 S14       30.18F WCI  31
MANITOWOC      CLOUDY    36  25  64 S23G30    30.22F WCI  24
APPLETON       CLOUDY    39  19  45 SE12      30.15F WCI  32
CLINTONVILLE   CLOUDY    39  23  52 SE13      30.15F WCI  32
OSHKOSH        CLOUDY    42  23  46 S12       30.15F
$$

WIZ032>034-041-042-053>061-232100-
SOUTHWEST WISCONSIN

CITY           SKY/WX    TMP DP  RH WIND       PRES   REMARKS
LA CROSSE      CLOUDY    44  25  47 SE17G24   30.03F
SPARTA         CLOUDY    42  23  46 SE12      30.09F
VIROQUA        CLOUDY    40  25  54 S15       30.07F WCI  32
BOSCOBEL       CLOUDY    45  23  42 S9        30.11F
PRAIRIE DU CHI CLOUDY    42  26  53 SE12      30.09F
PLATTEVILLE    CLOUDY    42  28  56 SE14G20   30.11F
$$

WIZ056-057-062-063-064-067-068-232100-
SOUTH CENTRAL WISCONSIN

CITY           SKY/WX    TMP DP  RH WIND       PRES   REMARKS
REEDSBURG      CLOUDY    43  22  43 SE9G18    30.10F
BARABOO/DELLS  CLOUDY    42  21  42 S15       30.11F
LONE ROCK      CLOUDY    46  22  38 S10       30.11F
MINERAL POINT  CLOUDY    43  23  45 S18G26    30.11F
MADISON        CLOUDY    45  19  35 S16       30.13F
MIDDLETON      CLOUDY    46  20  35 S13G22    30.13F
WATERTOWN      CLOUDY    45  21  38 SE12G18   30.15F
MONROE         CLOUDY    43  23  45 SE20G28   30.12F
JANESVILLE     CLOUDY    46  16  29 S17G24    30.16F
$$

WIZ051-052-058>065-066-070>072-232100-
SOUTHEAST WISCONSIN

CITY           SKY/WX    TMP DP  RH WIND       PRES   REMARKS
MILWAUKEE      CLOUDY    42  23  46 SE15G22   30.21F
WAUKESHA       CLOUDY    43  23  45 SE13G20   30.19F
MILWAUKEE/TIMM CLOUDY    43  19  39 SE17      30.21F
RACINE         CLOUDY    39  24  55 S18G26    30.23F WCI  30
KENOSHA        CLOUDY    40  24  53 SE15      30.21F WCI  32
FOND DU LAC    CLOUDY    43  23  45 S16       30.15F
SHEBOYGAN      CLOUDY    36  24  62 S20G26    30.20F WCI  25
WEST BEND      CLOUDY    41  25  52 SE14      30.17F
JUNEAU         CLOUDY    44  21  40 SE14G21   30.15F
$$

LSZ147-162-232100-
LAKE SUPERIOR

STATION/POSITION TIME  TEMP    WIND        PRES    WAVE
                       AIR SEA DIR/SP/G            HT/PER
                 (UTC) (F)     (DEG/KT/KT) (MB)    (FT/S)
DEVILS ISLAND    2000   36     180/  6/  7 1017.1F
PORT WING        1930   39     180/  7/ 12 1016.3F
SAXON HARBOR     1940   40     190/  8/ 14 1016.6F
$$

LMZ867-665-643>646-232100-
LAKE MICHIGAN

STATION/POSITION TIME  TEMP    WIND        PRES    WAVE
                       AIR SEA DIR/SP/G            HT/PER
                 (UTC) (F)     (DEG/KT/KT) (MB)    (FT/S)
CHAMBERS ISLAND  1940   35     160/  7/ 13 1022.7F
NORTHPORT PIER   1940   34     150/ 10/ 22 1023.4F
SISTER BAY       1921   34     190/ 21/ 30   N/A
KEWAUNEE LAKESHO 2000   34     180/ 23/ 26 1023.0
SHEBOYGAN LAKESH 2000   35     160/ 26/ 29 1023.1F
PORT WASHINGTON  1931   37     160/ 19/ 26 1024.4F
MILWAUKEE LAKESH 2000   36     150/ 23/ 24   N/A
KENOSHA   LAKESH 2000   37     160/ 19/ 22 1023.0
$$

TC  - TEMPERATURE IN CELSIUS
VSB - VISIBILITY IN STATUTE MILES
WCI - WIND CHILL INDEX
HX  - HEAT INDEX




USA.gov is the U.S. government's official web portal to all federal, state and local government web resources and services.